| time (UTC) | temp C | wind direction | speed KPH | gust KPH | rain 1hr cm | rain 24hr cm | rain mn cm | humidity % | barometer mb |
| 20260505001544 | 25 | 281 | 3.2 | 17.7 | 0.00 | 0.00 | 0.00 | 65 | 1006.6 |
| 20260505000054 | 26 | 90 | 3.2 | 27.4 | 0.00 | 0.00 | 0.00 | 64 | 1006.7 |
| 20260504234547 | 26 | 139 | 6.4 | 24.1 | 0.00 | 0.00 | 0.00 | 63 | 1006.8 |
| 20260504233101 | 26 | 249 | 9.7 | 20.9 | 0.00 | 0.00 | 0.00 | 62 | 1006.7 |
| 20260504231543 | 26 | 198 | 3.2 | 16.1 | 0.00 | 0.00 | 0.00 | 61 | 1006.9 |
| 20260504230039 | 27 | 243 | 9.7 | 24.1 | 0.00 | 0.00 | 0.00 | 59 | 1007.1 |
| 20260504224540 | 27 | 269 | 8.0 | 19.3 | 0.00 | 0.00 | 0.00 | 59 | 1007.2 |
| 20260504223053 | 27 | 175 | 8.0 | 30.6 | 0.00 | 0.00 | 0.00 | 59 | 1007.1 |
| 20260504221536 | 27 | 232 | 8.0 | 20.9 | 0.00 | 0.00 | 0.00 | 58 | 1007.3 |
| 20260504220032 | 27 | 326 | 6.4 | 20.9 | 0.00 | 0.00 | 0.00 | 57 | 1007.4 |
| 20260504214531 | 27 | 71 | 6.4 | 20.9 | 0.00 | 0.00 | 0.00 | 57 | 1007.7 |
| 20260504213040 | 27 | 245 | 6.4 | 24.1 | 0.00 | 0.00 | 0.00 | 58 | 1008.0 |
| 20260504211532 | 27 | 127 | 9.7 | 27.4 | 0.00 | 0.00 | 0.00 | 55 | 1008.4 |
| 20260504210024 | 27 | 195 | 6.4 | 22.5 | 0.00 | 0.00 | 0.00 | 55 | 1008.6 |
| 20260504204535 | 27 | 144 | 8.0 | 27.4 | 0.00 | 0.00 | 0.00 | 54 | 1008.9 |
| 20260504203024 | 27 | 301 | 6.4 | 20.9 | 0.00 | 0.00 | 0.00 | 54 | 1009.1 |
| 20260504201518 | 27 | 236 | 11.3 | 27.4 | 0.00 | 0.00 | 0.00 | 53 | 1009.5 |
| 20260504200015 | 27 | 205 | 8.0 | 19.3 | 0.00 | 0.00 | 0.00 | 54 | 1009.8 |
| 20260504194513 | 27 | 252 | 9.7 | 24.1 | 0.00 | 0.00 | 0.00 | 53 | 1010.1 |
| 20260504193010 | 26 | 239 | 6.4 | 22.5 | 0.00 | 0.00 | 0.00 | 54 | 1010.3 |
| 20260504191509 | 27 | 228 | 6.4 | 19.3 | 0.00 | 0.00 | 0.00 | 52 | 1010.6 |
| 20260504190006 | 26 | 112 | 11.3 | 30.6 | 0.00 | 0.00 | 0.00 | 50 | 1010.5 |
| 20260504184504 | 26 | 274 | 4.8 | 33.8 | 0.00 | 0.00 | 0.00 | 51 | 1010.7 |
| 20260504183002 | 26 | 244 | 9.7 | 27.4 | 0.00 | 0.00 | 0.00 | 50 | 1011.1 |
| 20260504181603 | 25 | 263 | 6.4 | 17.7 | 0.00 | 0.00 | 0.00 | 51 | 1011.1 |
| 20260504180058 | 26 | 121 | 6.4 | 22.5 | 0.00 | 0.00 | 0.00 | 51 | 1011.2 |
| 20260504174604 | 25 | 209 | 4.8 | 25.7 | 0.00 | 0.00 | 0.00 | 53 | 1011.5 |
| 20260504173052 | 25 | 167 | 8.0 | 24.1 | 0.00 | 0.00 | 0.00 | 52 | 1011.9 |
| 20260504171552 | 24 | 220 | 8.0 | 27.4 | 0.00 | 0.00 | 0.00 | 52 | 1012.3 |
| 20260504081532 | 17 | 233 | 4.8 | 12.9 | 0.00 | 0.00 | 0.00 | 67 | 1013.9 |
| 20260504050007 | 18 | 128 | 0.0 | 6.4 | 0.00 | 0.00 | 0.00 | 62 | 1016.0 |
| 20260504044513 | 18 | 155 | 0.0 | 6.4 | 0.00 | 0.00 | 0.00 | 61 | 1016.1 |
| 20260504043009 | 19 | 149 | 1.6 | 6.4 | 0.00 | 0.00 | 0.00 | 61 | 1016.1 |
| 20260504041505 | 18 | 250 | 1.6 | 6.4 | 0.00 | 0.00 | 0.00 | 62 | 1016.0 |
| 20260504040005 | 18 | 221 | 1.6 | 6.4 | 0.00 | 0.00 | 0.00 | 62 | 1016.1 |
| 20260504034504 | 18 | 127 | 0.0 | 6.4 | 0.00 | 0.00 | 0.00 | 63 | 1016.1 |
| 20260504033007 | 18 | 141 | 0.0 | 3.2 | 0.00 | 0.00 | 0.00 | 63 | 1016.1 |
| 20260504031505 | 18 | 120 | 1.6 | 4.8 | 0.00 | 0.00 | 0.00 | 62 | 1015.9 |
| 20260504030003 | 19 | 103 | 0.0 | 4.8 | 0.00 | 0.00 | 0.00 | 62 | 1015.8 |
| 20260504024504 | 20 | 158 | 0.0 | 4.8 | 0.00 | 0.00 | 0.00 | 60 | 1015.8 |
| 20260504023003 | 20 | 226 | 0.0 | 4.8 | 0.00 | 0.00 | 0.00 | 59 | 1015.9 |
| 20260504021509 | 20 | 220 | 0.0 | 4.8 | 0.00 | 0.00 | 0.00 | 56 | 1015.8 |
| 20260504020001 | 21 | 274 | 1.6 | 4.8 | 0.00 | 0.00 | 0.00 | 54 | 1015.7 |
| 20260504014501 | 21 | 221 | 0.0 | 3.2 | 0.00 | 0.00 | 0.00 | 52 | 1015.7 |
| 20260504013002 | 22 | 120 | 0.0 | 4.8 | 0.00 | 0.00 | 0.00 | 49 | 1015.8 |
| 20260504011600 | 22 | 126 | 1.6 | 6.4 | 0.00 | 0.00 | 0.00 | 47 | 1015.6 |
| 20260504010101 | 23 | 255 | 1.6 | 8.0 | 0.00 | 0.00 | 0.00 | 46 | 1015.6 |
| 20260504004601 | 24 | 97 | 1.6 | 9.7 | 0.00 | 0.00 | 0.00 | 45 | 1015.6 |
| 20260504003100 | 25 | 244 | 3.2 | 12.9 | 0.00 | 0.00 | 0.00 | 44 | 1015.6 |